RH
15 14 13 12 12 11 10 10 9 9 9 9 9 9 9 9 9 9 10 10 10 10 10 10 10 10 10 10 10 10 10 10 9 9 9 9 9 9 9 9 9 9
14 13 12 11 11 11 10 10 10 9 10 10 10 10 11 11 11 12 12 12 12 12 12 12 11 12 11 11 11 10 10 10 9 9 9 9 9 9 9 9 9 9
13 12 12 11 11 11 11 11 11 11 12 12 12 12 12 13 13 13 13 13 13 13 13 12 11 11 11 10 10 10 9 9 9 8 8 8 8 8 8 7 7 8
13 12 12 12 12 12 12 13 13 13 13 13 14 14 13 14 14 14 13 13 13 13 12 12 11 11 10 10 9 9 8 8 8 7 7 7 7 6 6 6 6 6
14 14 14 14 14 15 15 15 15 15 15 15 15 15 15 15 14 14 14 13 13 12 12 11 11 10 9 9 8 8 7 7 7 7 6 6 6 6 6 5 5 5
17 17 17 17 17 17 17 17 17 17 17 16 16 16 15 15 14 14 13 13 12 11 11 10 9 9 8 8 7 7 7 7 6 6 6 6 6 6 5 5 5 5
20 19 20 20 19 19 19 19 18 18 17 17 16 16 15 14 14 13 12 12 11 10 9 9 8 8 7 7 7 7 7 7 7 7 7 7 8 7 7 7 6 6
22 22 22 22 21 21 20 19 18 17 17 16 15 15 14 13 12 11 11 10 9 8 8 8 7 8 8 8 8 8 8 9 9 9 9 9 10 10 10 10 9 9
24 24 23 22 21 20 19 19 18 17 16 15 14 13 12 11 10 9 9 8 8 8 8 8 8 8 9 9 9 9 9 10 9 10 10 10 11 11 11 11 12 12
25 24 23 21 20 19 18 17 16 15 14 12 11 10 10 9 9 9 9 8 9 9 9 9 9 9 9 9 9 9 9 9 10 10 10 10 11 11 12 12 13 14
24 23 21 20 19 18 16 15 13 12 11 10 10 10 10 10 10 10 9 9 9 9 9 10 9 10 10 10 10 10 10 10 10 10 11 11 12 13 13 13 14 15
22 21 19 18 17 15 13 12 11 11 11 11 11 11 11 11 11 10 10 10 10 10 11 11 11 11 11 11 11 11 11 11 11 12 12 13 15 16 17 17 17 16
20 19 17 15 13 12 12 12 12 12 12 12 12 11 12 12 12 12 12 13 13 13 13 13 13 13 13 13 13 12 12 12 12 13 14 16 18 19 20 21 21 20
17 15 14 13 13 13 13 12 13 12 12 13 13 13 14 14 15 16 16 17 17 17 17 17 17 16 16 15 15 14 14 13 13 13 14 17 20 22 23 24 26 27
15 14 14 14 14 14 14 14 15 15 16 17 17 18 19 19 20 20 20 21 21 21 21 21 21 20 19 19 18 17 16 15 14 14 14 16 20 23 25 26 30 37
15 15 15 14 14 15 16 18 19 20 20 21 21 21 22 22 23 23 23 23 23 23 24 24 24 23 23 22 21 20 19 17 16 15 15 16 19 23 26 28 37 48
15 15 15 16 17 19 21 21 22 22 22 21 22 22 22 23 24 24 24 24 24 24 25 25 25 25 25 24 23 22 21 20 18 17 16 16 18 23 26 30 41 53
16 16 18 20 21 22 22 22 21 20 20 20 20 21 21 22 23 23 23 24 24 25 25 25 26 26 26 25 25 24 24 22 20 19 17 17 18 23 26 29 35 48
19 21 22 22 21 21 20 20 19 19 19 19 19 19 19 19 20 20 21 21 22 23 24 25 26 27 27 26 26 25 25 24 23 21 20 19 19 23 27 27 28 37
22 21 21 20 18 18 18 17 16 16 15 15 15 15 15 15 16 16 16 17 18 19 20 22 24 26 27 27 28 27 26 25 24 22 22 21 21 24 27 27 27 30
20 19 17 16 15 15 15 15 15 15 15 16 16 16 17 17 18 18 18 18 18 18 18 19 21 23 25 27 29 29 28 27 25 24 24 23 23 25 28 29 28 28
16 15 14 14 15 15 15 16 16 16 16 16 16 16 17 17 17 18 19 19 20 21 21 21 22 21 21 23 27 29 29 28 27 26 25 24 24 27 29 30 30 29
15 15 15 15 15 15 15 16 16 16 16 17 17 17 18 18 18 18 18 18 18 19 20 21 23 24 23 22 23 25 27 28 29 29 28 27 27 28 28 29 29 31
16 16 15 15 16 16 17 18 18 18 18 18 18 19 19 20 20 20 21 21 21 20 20 19 20 22 24 25 25 24 23 24 27 29 30 30 30 30 30 30 29 30
16 16 16 17 17 18 18 18 18 17 18 18 18 18 18 18 18 19 19 21 22 22 23 22 21 21 22 23 24 25 24 23 24 26 29 32 32 32 33 32 31 31
17 17 17 17 17 17 18 18 18 18 19 19 19 19 19 19 19 19 19 20 20 20 21 21 22 23 24 23 22 23 24 23 23 24 26 29 32 33 34 33 33 34
Wind_Speed
92 93 94 95 96 97 98 99 100 101 102 102 102 102 102 102 102 102 101 101 101 101 101 101 100 100 100 100 100 99 99 99 99 99 99 98 98 98 98 98 98 98
95 96 97 98 100 101 101 102 103 103 104 104 104 104 104 104 104 104 103 103 103 103 103 103 102 102 102 102 102 103 103 103 103 103 103 103 103 103 103 103 103 102
98 99 100 101 102 103 104 104 105 105 105 106 106 106 106 107 107 107 107 107 106 106 107 106 106 106 107 107 107 107 107 108 108 108 108 108 108 108 108 108 107 107
100 101 102 103 104 105 105 106 106 107 107 108 108 109 109 109 110 110 110 111 111 111 111 112 112 112 112 112 112 112 112 112 111 111 111 111 111 111 111 111 110 110
101 102 103 104 105 105 106 107 108 108 109 110 110 111 111 112 112 113 113 114 115 115 115 116 116 116 116 115 115 114 113 113 112 111 110 109 109 108 108 108 108 108
102 103 104 105 105 106 107 108 109 109 110 111 112 113 113 114 115 115 116 117 117 117 117 117 117 117 116 115 114 113 111 109 108 106 105 103 102 101 100 100 99 99
103 104 104 105 106 107 108 109 110 111 112 113 114 115 116 116 117 118 118 118 118 117 117 116 115 114 113 111 110 108 106 104 102 100 98 96 94 92 92 91 90 90
104 104 105 106 107 109 110 111 112 113 114 115 116 117 117 118 118 117 117 116 115 114 113 112 110 108 107 105 103 101 99 97 96 94 92 90 89 87 85 85 84 83
105 106 107 108 109 111 112 113 114 115 116 117 117 117 116 116 115 114 113 111 110 108 106 105 103 101 99 98 96 94 93 91 90 88 87 85 84 83 81 80 79 79
106 108 109 110 112 113 114 115 115 115 115 115 114 113 112 111 109 108 106 104 102 101 99 97 95 94 92 91 89 88 86 85 84 83 81 80 79 79 78 77 75 75
109 110 112 113 114 114 114 114 113 112 111 110 108 106 105 103 101 100 98 96 95 93 91 89 88 86 85 83 82 81 80 79 78 76 76 75 74 74 74 74 73 72
112 113 114 114 114 113 111 110 108 106 105 103 101 99 97 95 93 91 90 88 86 85 83 82 80 79 78 77 75 75 74 73 72 71 70 69 69 70 70 71 71 71
113 113 112 111 110 108 106 104 102 100 98 96 93 91 89 87 85 83 82 81 80 79 78 76 75 74 73 72 71 70 69 68 67 66 65 65 65 66 67 68 69 70
110 109 107 106 104 102 99 97 95 92 90 88 86 84 83 81 80 79 78 77 76 75 74 74 73 72 71 70 69 68 67 66 65 63 62 62 62 63 64 65 66 68
104 103 101 99 96 94 91 89 87 85 84 83 82 81 80 80 79 78 77 76 75 74 73 73 72 71 71 70 68 68 67 65 64 62 60 60 60 60 61 63 64 66
98 96 94 91 89 86 84 83 82 82 82 81 81 81 80 79 79 78 77 76 75 74 73 72 72 71 71 70 69 68 67 65 63 61 60 59 58 59 59 61 62 64
91 89 87 85 83 82 81 81 82 82 82 82 81 81 80 79 78 77 76 75 74 73 72 72 71 71 70 70 69 68 67 66 64 61 59 58 57 57 58 59 61 62
85 83 82 82 81 82 82 82 82 82 81 80 79 78 77 76 75 74 74 73 73 72 71 71 71 71 70 70 69 68 68 67 64 61 59 57 57 57 58 59 60 60
81 81 81 82 82 82 81 80 79 77 76 75 74 73 72 72 71 71 70 70 69 69 68 68 68 69 69 69 68 68 68 67 65 61 58 57 57 57 59 60 59 59
81 81 81 80 79 78 76 74 73 72 71 70 69 69 68 68 67 67 66 66 66 65 65 64 65 66 66 66 66 66 67 67 64 61 58 57 57 58 60 60 59 58
80 79 77 75 74 72 71 70 70 69 68 68 67 66 66 66 65 65 64 64 64 63 62 61 62 63 63 63 63 64 64 65 63 60 58 57 57 58 60 59 58 58
75 73 72 71 70 69 69 69 69 68 68 67 66 66 66 65 65 64 64 63 63 62 60 59 60 60 60 60 61 62 62 62 60 59 58 57 57 58 60 59 58 58
71 70 69 69 69 68 68 68 68 67 67 66 65 64 64 64 64 63 63 62 62 61 60 59 58 59 58 58 58 59 60 59 58 57 56 55 56 58 59 59 58 58
69 68 68 67 67 67 66 66 66 65 65 65 64 63 63 62 62 61 61 61 61 60 60 58 58 58 57 56 56 57 57 57 56 55 54 54 55 57 58 58 58 57
66 66 65 65 65 65 65 64 64 64 63 63 63 62 62 61 61 60 60 60 60 59 59 57 56 56 56 56 55 56 55 54 54 53 52 52 53 54 56 57 57 57
63 63 63 63 62 61 60 60 60 59 59 59 59 59 59 58 59 58 58 58 59 59 58 57 55 54 55 55 54 54 54 53 52 51 51 51 51 52 54 55 55 55
Wind_Direction
294 294 294 293 293 293 292 292 292 291 291 291 290 290 290 289 289 288 288 287 287 286 285 285 284 283 282 282 281 280 280 279 279 278 277 277 276 276 275 275 274 273
295 294 294 294 294 293 293 293 293 293 292 292 292 291 291 290 290 289 288 288 287 286 285 284 283 283 282 281 281 280 279 279 279 278 277 277 276 276 275 275 274 273
295 294 294 294 294 294 294 294 294 293 293 293 292 292 291 291 290 290 289 288 288 287 286 285 285 284 283 282 282 281 281 280 280 279 279 278 277 277 276 275 274 274
295 295 295 295 295 295 295 294 294 293 293 293 292 292 291 291 291 290 290 289 289 289 288 288 287 287 286 286 285 284 284 283 282 281 281 280 279 278 277 276 275 274
296 296 295 295 295 294 294 294 294 293 293 293 292 292 292 291 291 291 291 290 290 290 290 289 289 289 288 288 287 287 286 285 284 284 283 282 281 280 279 277 276 275
296 296 295 295 295 294 294 294 293 293 293 292 292 292 292 291 291 291 291 291 291 290 290 290 290 289 289 289 288 288 287 286 286 285 284 283 281 280 279 277 276 275
296 295 295 295 294 294 294 293 293 293 292 292 292 292 292 291 291 291 291 291 291 290 290 290 290 289 289 288 288 287 287 286 285 285 284 282 281 280 278 277 275 274
296 295 295 295 294 294 294 294 293 293 293 292 292 292 292 291 291 291 291 291 290 290 290 289 289 289 288 288 287 286 286 285 284 284 283 282 281 279 278 276 274 273
296 295 295 295 295 294 294 294 294 293 293 293 293 292 292 292 291 291 291 290 290 290 289 289 288 288 287 287 286 285 285 284 283 282 282 281 280 278 277 275 273 272
296 296 296 295 295 295 295 295 294 294 294 293 293 293 292 292 292 291 291 290 290 289 289 288 288 287 286 286 285 284 284 283 282 281 280 279 278 277 276 274 272 271
297 297 296 296 296 296 296 295 295 295 294 294 294 293 293 293 292 292 291 291 290 289 289 288 288 287 286 285 285 284 283 282 281 280 279 278 277 276 275 273 271 269
298 298 297 297 297 297 296 296 296 295 295 295 294 294 294 293 293 292 292 291 291 290 289 288 288 287 286 285 284 283 282 281 280 279 278 277 276 275 274 273 271 269
299 298 298 298 298 297 297 297 296 296 296 295 295 294 294 293 293 292 292 291 291 290 289 288 288 287 286 285 284 283 282 281 280 279 278 277 276 275 274 273 272 270
299 299 299 298 298 298 298 297 297 297 296 296 295 295 294 293 293 292 291 291 290 289 289 288 287 286 285 285 284 283 282 281 280 278 277 276 275 275 274 273 272 271
299 299 299 299 298 298 298 298 298 297 297 296 295 295 294 293 292 291 291 290 289 289 288 287 287 286 285 284 283 282 281 281 280 278 277 276 274 274 274 273 272 270
299 299 299 299 299 298 298 298 297 297 296 296 295 294 294 293 292 291 291 289 288 288 287 286 286 285 284 283 282 282 281 280 279 278 277 275 273 272 272 272 270 269
300 300 299 299 299 299 298 298 297 296 296 295 295 294 293 293 292 291 290 289 288 287 286 285 285 284 283 283 282 281 280 279 278 278 277 275 273 272 270 269 268 267
300 300 300 300 300 299 299 298 297 297 296 296 295 294 293 293 292 291 290 289 288 287 286 285 284 283 283 282 281 281 280 279 278 277 276 275 274 271 269 267 267 267
301 301 301 301 300 300 299 298 298 298 297 296 296 295 294 293 293 292 291 290 289 288 287 286 284 283 282 282 281 280 279 278 277 277 276 275 273 271 269 267 266 266
302 302 302 301 301 300 300 300 299 299 298 297 297 296 296 295 294 294 293 292 290 289 288 287 285 284 283 282 281 280 279 278 278 277 276 274 273 271 269 268 267 265
304 303 303 302 302 302 302 301 301 300 299 298 298 297 297 296 295 294 293 292 291 291 290 288 287 285 284 282 281 280 279 279 278 277 275 274 272 271 270 268 267 265
305 304 304 304 304 303 303 302 301 301 300 299 299 298 297 296 294 294 293 292 291 290 289 288 287 286 285 284 282 281 280 279 278 277 276 274 272 271 270 269 268 266
306 306 306 306 305 304 304 303 302 302 301 300 299 298 297 296 295 294 293 291 290 289 288 287 287 286 286 285 283 282 281 280 279 278 276 275 273 272 271 270 268 267
307 307 307 306 306 305 305 304 304 303 302 301 300 299 297 296 295 294 293 292 290 289 288 287 286 285 285 284 284 283 282 281 280 278 277 275 273 273 272 271 270 268
308 308 308 308 308 307 307 306 305 304 303 301 300 299 297 296 295 294 293 292 290 289 288 287 286 285 284 284 283 283 282 282 281 280 277 275 273 273 272 272 271 269
310 310 310 310 310 310 309 308 307 306 305 304 303 301 300 298 296 294 292 291 290 289 288 288 287 286 285 284 283 282 282 282 281 280 278 275 274 273 272 272 272 271